FW8778 Weather Reports


time (UTC)temp
F
wind
direction
speed
knots
gust
knots
rain 1hr
in
rain 24hr
in
rain mn
in
humidity
%
barometer
mb
20260507210058 58 359 0.0 0.0 0.00 0.00 0.00 85 1012.4
20260507204604 58 359 0.0 0.0 0.00 0.00 0.00 84 1012.6
20260507203106 58 359 0.0 0.0 0.00 0.00 0.00 84 1012.7
20260507201556 58 359 0.0 0.0 0.00 0.00 0.00 82 1012.5
20260507200055 58 359 0.0 0.0 0.00 0.00 0.00 82 1012.7
20260507194555 58 359 0.0 0.0 0.00 0.00 0.00 81 1012.7
20260507193058 58 359 0.0 0.0 0.00 0.00 0.00 79 1012.8
20260507191554 58 359 0.0 0.0 0.00 0.00 0.00 78 1012.8
20260507190052 58 359 0.0 0.0 0.00 0.00 0.00 77 1012.8
20260507184554 58 359 0.0 0.0 0.00 0.00 0.00 76 1012.9
20260507183055 58 359 0.0 0.0 0.00 0.00 0.00 75 1012.9
20260507181549 58 359 0.0 0.0 0.00 0.00 0.00 74 1013.0
20260507180048 58 359 0.0 0.0 0.00 0.00 0.00 72 1013.0
20260507174558 59 359 0.0 0.0 0.00 0.00 0.00 70 1013.4
20260507173056 59 359 0.0 0.0 0.00 0.00 0.00 69 1013.3
20260507171605 59 359 0.0 0.0 0.00 0.00 0.00 67 1013.1
20260507170047 59 359 0.0 0.0 0.00 0.00 0.00 65 1013.3
20260507164601 60 359 0.0 0.0 0.00 0.00 0.00 63 1013.1
20260507163046 60 359 0.0 0.0 0.00 0.00 0.00 61 1013.3
20260507161545 60 359 0.0 0.0 0.00 0.00 0.00 58 1013.4
20260507160044 61 359 0.0 0.0 0.00 0.00 0.00 55 1013.4
20260507154543 61 359 0.0 0.0 0.00 0.00 0.00 52 1013.5
20260507153048 62 359 0.0 0.0 0.00 0.00 0.00 50 1013.4
20260507151543 62 359 0.0 0.0 0.00 0.00 0.00 46 1013.5
20260507150039 62 359 0.0 0.0 0.00 0.00 0.00 47 1013.9
20260507144539 63 359 0.0 0.0 0.00 0.00 0.00 46 1014.1
20260507143039 64 359 0.0 0.0 0.00 0.00 0.00 45 1014.1
20260507141535 64 359 0.0 0.0 0.00 0.00 0.00 45 1014.4
20260507140035 65 359 0.0 0.0 0.00 0.00 0.00 42 1014.4
20260507134545 66 359 0.0 0.0 0.00 0.00 0.00 40 1014.5
20260507133035 66 359 0.0 0.0 0.00 0.00 0.00 42 1014.3
20260507131538 66 359 0.0 0.0 0.00 0.00 0.00 38 1014.9
20260507130033 66 359 0.0 0.0 0.00 0.00 0.00 41 1015.0
20260507124533 66 359 0.0 0.0 0.00 0.00 0.00 44 1015.1
20260507123030 65 359 0.0 0.0 0.00 0.00 0.00 41 1015.5
20260507121530 65 359 0.0 0.0 0.00 0.00 0.00 40 1015.6
20260507120028 66 359 0.0 0.0 0.00 0.00 0.00 43 1015.6
20260507114532 65 359 0.0 0.0 0.00 0.00 0.00 43 1015.6
20260507113027 65 359 0.0 0.0 0.00 0.00 0.00 44 1015.7
20260507111526 64 359 0.0 0.0 0.00 0.00 0.00 45 1015.9
20260507110025 64 359 0.0 0.0 0.00 0.00 0.00 56 1015.8
20260507104526 63 359 0.0 0.0 0.00 0.00 0.00 58 1015.6
20260507103028 63 359 0.0 0.0 0.00 0.00 0.00 58 1015.6
20260507101524 64 359 0.0 0.0 0.00 0.00 0.00 53 1016.1
20260507100023 66 359 0.0 0.0 0.00 0.00 0.00 58 1015.8
20260507094522 65 359 0.0 0.0 0.00 0.00 0.00 61 1016.1
20260507093019 64 359 0.0 0.0 0.00 0.00 0.00 63 1015.9
20260507091519 64 359 0.0 0.0 0.00 0.00 0.00 67 1016.0
20260507090024 63 359 0.0 0.0 0.00 0.00 0.00 71 1016.0
20260507084529 63 359 0.0 0.0 0.00 0.00 0.00 70 1015.6
20260507083012 62 359 0.0 0.0 0.00 0.00 0.00 76 1015.9
20260507081513 61 359 0.0 0.0 0.00 0.00 0.00 76 1015.9
20260507080008 60 359 0.0 0.0 0.00 0.00 0.00 76 1016.2
20260507074519 59 359 0.0 0.0 0.00 0.00 0.00 77 1016.5
20260507073003 58 359 0.0 0.0 0.00 0.00 0.00 75 1016.4
20260507071602 58 359 0.0 0.0 0.00 0.00 0.00 72 1016.5
20260507070106 59 359 0.0 0.0 0.00 0.00 0.00 69 1016.5
20260507064553 58 359 0.0 0.0 0.00 0.00 0.00 66 1016.2
20260507063053 58 359 0.0 0.0 0.00 0.00 0.00 62 1016.0
20260507061552 57 359 0.0 0.0 0.00 0.00 0.00 61 1015.9
20260507054555 57 359 0.0 0.0 0.00 0.00 0.00 61 1015.9
20260507053053 57 359 0.0 0.0 0.00 0.00 0.00 58 1015.9
20260507051548 57 359 0.0 0.0 0.00 0.00 0.00 56 1015.9
20260507050047 57 359 0.0 0.0 0.00 0.00 0.00 54 1015.7
20260507044547 57 359 0.0 0.0 0.00 0.00 0.00 53 1015.4
20260507043044 57 359 0.0 0.0 0.00 0.00 0.00 52 1015.0
20260507041542 56 359 0.0 0.0 0.00 0.00 0.00 54 1015.1
20260507040042 56 359 0.0 0.0 0.00 0.00 0.00 55 1015.0
20260507034553 56 359 0.0 0.0 0.00 0.00 0.00 56 1014.9
20260507033044 57 359 0.0 0.0 0.00 0.00 0.00 56 1015.1
20260507031540 57 359 0.0 0.0 0.00 0.00 0.00 55 1015.2
20260507030040 57 359 0.0 0.0 0.00 0.00 0.00 55 1015.1
20260507024552 57 359 0.0 0.0 0.00 0.00 0.00 54 1015.0
20260507023038 57 359 0.0 0.0 0.00 0.00 0.00 53 1015.0
20260507021546 57 359 0.0 0.0 0.00 0.00 0.00 54 1014.4
20260507020036 57 359 0.0 0.0 0.00 0.00 0.00 53 1014.6
20260507014541 57 359 0.0 0.0 0.00 0.00 0.00 54 1014.7
20260507013034 56 359 0.0 0.0 0.00 0.00 0.00 55 1014.7
20260507011539 56 359 0.0 0.0 0.00 0.00 0.00 57 1014.9
20260507010031 56 359 0.0 0.0 0.00 0.00 0.00 55 1014.7
20260507004529 55 359 0.0 0.0 0.00 0.00 0.00 61 1014.7
20260507003026 54 359 0.0 0.0 0.00 0.00 0.00 69 1014.9
20260507001526 54 359 0.0 0.0 0.00 0.00 0.00 81 1015.2
20260507000023 54 359 0.0 0.0 0.00 0.00 0.00 89 1015.1
20260506234520 54 359 0.0 0.0 0.00 0.00 0.00 91 1014.9
20260506233018 55 359 0.0 0.0 0.00 0.00 0.00 91 1014.6
20260506231516 55 359 0.0 0.0 0.00 0.00 0.00 92 1014.5
20260506230016 55 359 0.0 0.0 0.00 0.00 0.00 92 1014.3
20260506224515 55 359 0.0 0.0 0.00 0.00 0.00 92 1014.5
20260506223012 55 359 0.0 0.0 0.00 0.00 0.00 92 1014.6
20260506221510 56 359 0.0 0.0 0.00 0.00 0.00 92 1014.8
20260506220009 56 359 0.0 0.0 0.00 0.00 0.00 92 1014.9
20260506214516 56 359 0.0 0.0 0.00 0.00 0.00 92 1015.0
20260506213006 56 359 0.0 0.0 0.00 0.00 0.00 91 1014.9
20260506211505 57 359 0.0 0.0 0.00 0.00 0.00 91 1014.7